When you browse on this site, cookies collect data to enhance your experience and personalize the content and advertising you see.
Visit our Privacy Policy to learn more. By continuing to use the site, you agree to this use of cookies and data.

Météo par heure à San Luis

Ce jour, 29 Septembre, Mardi

Heure Température Précipitation Vent Pression Humidité
00:00 +17°C° 0 mm 8 m/s 692 mmHg 32%
01:00 +16°C° 0 mm 8 m/s 692 mmHg 34%
02:00 +16°C° 0 mm 9 m/s 691 mmHg 36%
03:00 +16°C° 0 mm 9 m/s 691 mmHg 38%
04:00 +16°C° 0 mm 9 m/s 691 mmHg 39%
05:00 +15°C° 0 mm 9 m/s 691 mmHg 41%
06:00 +16°C° 0 mm 9 m/s 691 mmHg 40%
07:00 +17°C° 0 mm 9 m/s 692 mmHg 38%
08:00 +18°C° 0 mm 9 m/s 692 mmHg 36%
09:00 +21°C° 0 mm 8 m/s 692 mmHg 33%
10:00 +23°C° 0 mm 7 m/s 693 mmHg 30%
11:00 +24°C° 0 mm 6 m/s 693 mmHg 26%
12:00 +26°C° 0 mm 6 m/s 693 mmHg 23%
13:00 +28°C° 0 mm 6 m/s 693 mmHg 19%
14:00 +29°C° 0 mm 5 m/s 692 mmHg 15%
15:00 +29°C° 0 mm 5 m/s 692 mmHg 15%
16:00 +28°C° 0 mm 5 m/s 692 mmHg 15%
17:00 +28°C° 0 mm 5 m/s 692 mmHg 15%
18:00 +26°C° 0 mm 5 m/s 692 mmHg 20%
19:00 +23°C° 0 mm 6 m/s 692 mmHg 26%
20:00 +21°C° 0 mm 6 m/s 692 mmHg 32%
21:00 +20°C° 0 mm 5 m/s 692 mmHg 35%
22:00 +20°C° 0 mm 5 m/s 692 mmHg 37%
23:00 +19°C° 0 mm 4 m/s 692 mmHg 40%

Demain, 30 Septembre, Mercredi

Heure Température Précipitation Vent Pression Humidité
00:00 +19°C° 0 mm 4 m/s 692 mmHg 39%
01:00 +18°C° 0 mm 3 m/s 691 mmHg 38%
02:00 +18°C° 0 mm 2 m/s 691 mmHg 37%
03:00 +18°C° 0 mm 2 m/s 691 mmHg 39%
04:00 +17°C° 0 mm 3 m/s 691 mmHg 41%
05:00 +17°C° 0 mm 3 m/s 691 mmHg 43%
06:00 +19°C° 0 mm 3 m/s 692 mmHg 41%
07:00 +20°C° 0 mm 3 m/s 692 mmHg 39%
08:00 +21°C° 0 mm 3 m/s 693 mmHg 38%
09:00 +23°C° 0 mm 4 m/s 693 mmHg 34%
10:00 +26°C° 0 mm 5 m/s 693 mmHg 30%
11:00 +27°C° 0 mm 5 m/s 694 mmHg 26%
12:00 +28°C° 0 mm 5 m/s 693 mmHg 23%
13:00 +29°C° 0 mm 5 m/s 693 mmHg 19%
14:00 +29°C° 0 mm 5 m/s 693 mmHg 16%
15:00 +29°C° 0 mm 5 m/s 692 mmHg 16%
16:00 +28°C° 0 mm 5 m/s 692 mmHg 17%
17:00 +28°C° 0 mm 5 m/s 692 mmHg 17%
18:00 +24°C° 0 mm 7 m/s 692 mmHg 31%
19:00 +21°C° 0 mm 8 m/s 693 mmHg 45%
20:00 +18°C° 0 mm 9 m/s 693 mmHg 60%
21:00 +17°C° 0 mm 10 m/s 694 mmHg 57%
22:00 +14°C° 0 mm 10 m/s 694 mmHg 55%
23:00 +13°C° 0 mm 11 m/s 695 mmHg 53%

Après-demain, 1 Octobre, Jeudi

Heure Température Précipitation Vent Pression Humidité
00:00 +13°C° 0 mm 10 m/s 695 mmHg 48%
01:00 +12°C° 0 mm 9 m/s 695 mmHg 43%
02:00 +12°C° 0 mm 9 m/s 695 mmHg 37%
03:00 +11°C° 0 mm 9 m/s 695 mmHg 37%
04:00 +11°C° 0 mm 9 m/s 696 mmHg 38%
05:00 +10°C° 0 mm 8 m/s 696 mmHg 38%
06:00 +10°C° 0 mm 9 m/s 697 mmHg 34%
07:00 +9°C° 0 mm 10 m/s 697 mmHg 31%
08:00 +9°C° 0 mm 10 m/s 698 mmHg 28%
09:00 +12°C° 0 mm 10 m/s 698 mmHg 26%
10:00 +13°C° 0 mm 9 m/s 698 mmHg 24%
11:00 +16°C° 0 mm 9 m/s 698 mmHg 22%
12:00 +17°C° 0 mm 9 m/s 698 mmHg 21%
13:00 +18°C° 0 mm 9 m/s 698 mmHg 21%
14:00 +19°C° 0 mm 9 m/s 697 mmHg 20%
15:00 +18°C° 0 mm 9 m/s 697 mmHg 21%
16:00 +18°C° 0 mm 9 m/s 697 mmHg 22%
17:00 +17°C° 0 mm 9 m/s 696 mmHg 23%
18:00 +16°C° 0 mm 9 m/s 697 mmHg 25%
19:00 +15°C° 0 mm 9 m/s 697 mmHg 27%
20:00 +13°C° 0 mm 8 m/s 698 mmHg 30%
21:00 +12°C° 0 mm 8 m/s 698 mmHg 32%
22:00 +11°C° 0 mm 8 m/s 699 mmHg 35%
23:00 +11°C° 0 mm 8 m/s 699 mmHg 38%

2 Octobre, Vendredi

Heure Température Précipitation Vent Pression Humidité
00:00 +10°C° 0 mm 8 m/s 699 mmHg 41%
01:00 +10°C° 0 mm 8 m/s 699 mmHg 44%
02:00 +9°C° 0 mm 8 m/s 699 mmHg 47%
03:00 +7°C° 0 mm 8 m/s 700 mmHg 51%
04:00 +7°C° 0 mm 8 m/s 700 mmHg 54%
05:00 +6°C° 0 mm 8 m/s 700 mmHg 57%
06:00 +7°C° 0 mm 8 m/s 701 mmHg 56%
07:00 +9°C° 0 mm 8 m/s 702 mmHg 55%
08:00 +9°C° 0 mm 8 m/s 703 mmHg 54%
09:00 +11°C° 0 mm 8 m/s 703 mmHg 49%
10:00 +13°C° 0 mm 8 m/s 704 mmHg 44%
11:00 +16°C° 0 mm 8 m/s 704 mmHg 40%
12:00 +16°C° 0 mm 9 m/s 704 mmHg 39%
13:00 +17°C° 0 mm 9 m/s 704 mmHg 38%
14:00 +17°C° 0 mm 10 m/s 703 mmHg 37%
15:00 +16°C° 0 mm 11 m/s 703 mmHg 38%
16:00 +15°C° 0 mm 12 m/s 703 mmHg 38%
17:00 +14°C° 0 mm 13 m/s 703 mmHg 39%
18:00 +12°C° 0 mm 13 m/s 704 mmHg 39%
19:00 +10°C° 0 mm 13 m/s 704 mmHg 39%
20:00 +8°C° 0 mm 13 m/s 705 mmHg 40%
21:00 +8°C° 0 mm 13 m/s 705 mmHg 43%
22:00 +7°C° 0 mm 12 m/s 705 mmHg 46%
23:00 +5°C° 0 mm 12 m/s 705 mmHg 49%

3 Octobre, Samedi

Heure Température Précipitation Vent Pression Humidité
00:00 +6°C° 0 mm 10 m/s 705 mmHg 49%
01:00 +7°C° 0 mm 8 m/s 705 mmHg 49%
02:00 +8°C° 0 mm 7 m/s 705 mmHg 49%
03:00 +8°C° 0 mm 7 m/s 705 mmHg 50%
04:00 +8°C° 0 mm 6 m/s 705 mmHg 51%
05:00 +8°C° 0 mm 6 m/s 705 mmHg 51%
06:00 +9°C° 0 mm 7 m/s 705 mmHg 51%
07:00 +9°C° 0 mm 8 m/s 706 mmHg 52%
08:00 +10°C° 0 mm 9 m/s 706 mmHg 52%
09:00 +10°C° 0 mm 9 m/s 706 mmHg 53%
10:00 +11°C° 0 mm 9 m/s 706 mmHg 53%
11:00 +11°C° 0 mm 8 m/s 707 mmHg 54%
12:00 +11°C° 0 mm 8 m/s 706 mmHg 54%
13:00 +11°C° 0 mm 7 m/s 706 mmHg 55%
14:00 +11°C° 0 mm 7 m/s 705 mmHg 55%
15:00 +11°C° 0 mm 6 m/s 705 mmHg 54%
16:00 +11°C° 0 mm 6 m/s 705 mmHg 53%
17:00 +12°C° 0 mm 5 m/s 705 mmHg 53%
18:00 +11°C° 0 mm 4 m/s 706 mmHg 54%
19:00 +11°C° 0 mm 3 m/s 706 mmHg 55%
20:00 +10°C° 0 mm 3 m/s 707 mmHg 57%
21:00 +10°C° 0 mm 2 m/s 707 mmHg 56%
22:00 +10°C° 0 mm 2 m/s 707 mmHg 56%
23:00 +9°C° 0 mm 2 m/s 707 mmHg 55%

4 Octobre, Dimanche

Heure Température Précipitation Vent Pression Humidité
00:00 +8°C° 0 mm 2 m/s 707 mmHg 61%
01:00 +7°C° 0 mm 2 m/s 706 mmHg 67%
02:00 +7°C° 0 mm 2 m/s 706 mmHg 73%
03:00 +7°C° 0 mm 1 m/s 706 mmHg 74%
04:00 +7°C° 0 mm 1 m/s 706 mmHg 75%
05:00 +6°C° 0 mm 1 m/s 705 mmHg 77%
06:00 +7°C° 0 mm 2 m/s 706 mmHg 64%
07:00 +8°C° 0 mm 3 m/s 706 mmHg 52%
08:00 +10°C° 0 mm 4 m/s 706 mmHg 40%
09:00 +11°C° 0 mm 4 m/s 706 mmHg 37%
10:00 +13°C° 0 mm 4 m/s 706 mmHg 34%
11:00 +14°C° 0 mm 4 m/s 706 mmHg 32%
12:00 +17°C° 0 mm 4 m/s 705 mmHg 30%
13:00 +18°C° 0 mm 3 m/s 704 mmHg 29%
14:00 +19°C° 0 mm 3 m/s 704 mmHg 27%
15:00 +19°C° 0 mm 3 m/s 703 mmHg 27%
16:00 +19°C° 0 mm 3 m/s 702 mmHg 27%
17:00 +19°C° 0 mm 3 m/s 701 mmHg 27%
18:00 +17°C° 0 mm 3 m/s 701 mmHg 31%
19:00 +16°C° 0 mm 3 m/s 701 mmHg 35%
20:00 +13°C° 0 mm 3 m/s 701 mmHg 39%
21:00 +13°C° 0 mm 4 m/s 701 mmHg 41%
22:00 +12°C° 0 mm 4 m/s 701 mmHg 44%
23:00 +12°C° 0 mm 5 m/s 701 mmHg 46%
Voir plus